SCP
0 0 0 0 0 0 0 0 0 0 0 0 0 0 0 0 0 0 0 0 0 0 0 0 0 0 0 0 0 0 0 -0 -0 0 0 0 0 0 0 0 0 0 0 0 0 0 0 0 0 0 0 0 0 0
0 0 0 0 0 0 0 0 0 0 0 0 0 0 0 0 0 0 0 0 0 0 0 0 0 0 0 0 0 0 0 0 0 0 0 0 0 0 0 0 0 0 0 0 0 0 0 0 0 0 0 0 0 0
0 0 0 0 0 0 0 0 0 0 0 0 0 0 0 0 0 0 0 0 0 0 0 0 -0 -0 -0 -0 0 0 0 0 0 -0 -0 0 0 0 0 0 0 0 0 0 0 0 0 0 0 0 0 0 0 0
0 0 0 0 0 0 0 0 0 0 0 0 0 0 0 0 0 0 0 0 0 0 0 -0 0 -0 -0 -0 -0 0 0 0 0 0 -0 -0 0 0 0 0 0 0 0 0 0 0 0 0 0 0 0 0 0 0
0 0 0 0 0 0 0 0 0 0 0 0 0 0 0 0 0 0 0 0 0 0 0 0 0 0 0 0 0 0 0 0 0 0 0 -0 -0 0 0 0 0 0 0 0 0 0 0 0 0 0 0 0 0 0
0 0 0 0 0 0 0 0 0 0 0 0 0 0 0 0 0 0 0 0 0 0 0 0 -0 0 0 -0 0 0 0 0 0 0 0 0 0 0 0 0 0 0 0 0 0 0 0 0 0 0 0 0 0 0
0 0 0 0 0 0 0 0 0 0 0 0 0 0 0 0 0 0 0 0 0 0 0 0 0 0 -0 0 -0 0 0 0 0 0 0 0 0 0 0 0 0 0 -0 -0 0 0 0 0 0 0 0 0 0 0
0 0 0 0 0 0 0 0 0 0 0 0 0 0 -0 0 0 0 0 0 -0 0 -0 0 0 0 0 0 0 0 0 0 0 0 0 0 0 0 0 -0 0 -0 0 0 0 0 0 0 0 0 0 0 0 0
0 0 0 0 0 0 0 0 0 0 0 0 0 0 0 0 0 0 0 0 0 0 -0 -0 0 0 0 0 0 0 0 0 0 0 0 0 0 0 -0 0 -0 -0 -0 0 0 0 0 0 0 0 0 0 0 0
0 0 0 0 0 0 0 0 0 0 0 0 0 0 0 0 -0 0 0 0 0 0 0 -0 -0 -0 -0 -0 0 0 0 0 0 0 0 0 0 0 -0 -0 -0 0 -0 0 0 0 0 0 0 0 0 0 0 0
0 0 0 0 0 0 0 -0 -0 -0 0 0 0 0 -0 0 0 0 -0 0 -0 -0 0 0 0 0 -0 0 -0 -0 0 0 0 0 0 -0 -0 -0 -0 -0 -0 0 0 0 0 0 0 0 0 0 0 0 0 0
0 0 0 0 0 0 0 -0 -0 0 0 0 -0 -0 -0 -0 -0 0 0 0 0 -0 0 -0 -0 -0 -0 -0 -0 -0 0 0 0 0 0 -0 -0 -0 0 0 -0 -0 0 0 0 0 0 0 0 0 0 0 0 0
0 0 0 0 0 0 0 0 -0 -0 -0 -0 -0 0 0 0 0 0 -0 0 0 -0 0 -0 -0 -0 -0 -0 -0 -0 0 0 0 0 0 0 0 0 0 0 0 0 0 0 0 0 0 -0 0 0 0 0 0 0
0 0 0 0 0 0 0 -0 0 0 0 0 0 0 0 0 0 0 0 -0 0 0 -0 0 -0 0 -0 -0 0 0 0 0 0 0 0 0 0 0 0 0 0 0 0 0 0 0 0 0 0 0 0 0 0 0
0 0 -0 -0 0 -0 -0 -0 0 -0 0 0 0 0 0 0 -0 0 -0 -0 -0 -0 0 0 -0 0 0 0 0 0 0 0 0 0 0 0 0 0 0 0 0 0 0 0 0 0 0 0 0 0 0 0 0 0
0 -0 -0 -0 -0 -0 -0 -0 -0 0 0 0 0 -0 -0 0 -0 -0 -0 -0 0 -0 -0 0 0 0 0 0 0 0 0 0 0 0 0 0 0 0 0 0 0 0 0 0 0 0 0 0 0 0 0 0 0 0
-0 -0 -0 -0 -0 -0 0 0 0 0 0 0 0 0 -0 0 -0 -0 -0 0 0 0 0 0 0 0 0 0 0 -0 -0 0 0 0 0 0 0 0 0 0 0 0 -0 0 -0 -0 0 0 -0 0 0 0 0 0
-0 -0 -0 -0 0 -0 0 0 0 0 -0 -0 0 0 0 0 0 0 0 -0 -0 0 0 0 0 0 0 0 0 0 0 -0 0 0 0 0 0 -0 -0 -0 -0 -0 -0 -0 -0 -0 -0 -0 0 0 0 0 0 0
-0 0 0 -0 -0 -0 -0 0 0 0 0 0 -0 -0 -0 0 0 -0 0 -0 -0 -0 0 0 0 0 0 -0 -0 0 0 0 0 0 0 0 -0 -0 -0 0 -0 -0 -0 -0 -0 0 0 0 0 0 0 0 0 0
-0 0 -0 -0 -0 -0 -0 0 0 0 0 -0 0 0 -0 0 -0 -0 0 -0 -0 -0 -0 0 0 -0 -0 0 -0 0 0 0 0 0 -0 0 0 -0 0 0 0 0 0 -0 0 0 0 0 0 0 0 0 0 0
0 -0 -0 -0 -0 0 0 0 0 0 -0 -0 -0 -0 -0 -0 0 0 0 0 -0 0 0 0 -0 -0 0 0 0 0 -0 0 0 0 0 0 0 0 0 0 0 0 0 0 0 0 0 0 0 0 0 0 0 0
-0 -0 -0 -0 -0 -0 -0 0 -0 -0 -0 0 -0 -0 0 -0 -0 0 -0 0 0 0 0 0 0 0 0 0 0 -0 0 -0 0 0 0 0 0 0 0 0 0 0 0 0 0 -0 -0 0 0 0 0 0 0 0
-0 -0 -0 -0 -0 -0 -0 0 -0 -0 0 -0 -0 0 0 0 0 0 0 0 0 0 0 0 0 0 0 0 0 -0 0 0 0 0 0 0 0 0 0 0 0 0 0 -0 -0 -0 -0 0 0 0 0 0 0 0
-0 -0 0 0 -0 -0 -0 -0 -0 -0 0 0 0 0 0 0 0 0 0 0 0 0 0 0 0 0 0 0 0 0 0 0 0 0 0 0 0 -0 0 0 0 0 -0 -0 -0 -0 0 0 -0 -0 -0 -0 -0 0
0 0 0 0 -0 -0 0 0 -0 0 -0 0 0 0 0 0 0 0 0 0 0 0 0 0 0 0 0 0 0 0 0 0 0 -0 -0 -0 -0 -0 0 0 0 -0 0 0 -0 -0 -0 -0 -0 -0 -0 0 0 0
0 0 0 0 0 0 0 -0 -0 -0 0 0 0 0 0 0 0 0 0 0 0 0 0 0 0 0 0 0 0 0 0 0 0 0 -0 0 0 -0 -0 0 -0 -0 0 0 0 0 -0 -0 -0 -0 -0 0 0 0
0 0 0 0 0 0 0 0 0 0 0 0 0 0 0 0 0 0 0 0 0 0 0 0 0 0 0 0 0 0 0 0 0 0 -0 -0 -0 0 -0 0 0 -0 -0 0 0 0 0 0 0 0 0 0 0 0
0 0 0 0 0 -0 -0 0 0 0 0 0 0 0 0 0 0 0 0 -0 -0 -0 0 0 0 0 0 -0 0 0 -0 -0 -0 0 0 -0 -0 0 0 0 0 0 0 0 0 0 0 0 0 0 0 0 0 0
0 0 0 0 0 -0 0 0 0 -0 -0 0 0 0 0 0 0 0 0 0 -0 -0 -0 -0 -0 -0 -0 -0 -0 -0 -0 -0 -0 0 0 -0 -0 0 0 0 0 0 0 0 0 0 0 0 0 0 0 0 0 0
0 0 0 0 0 -0 0 -0 0 0 -0 -0 0 0 0 0 0 0 0 0 0 -0 -0 -0 -0 -0 -0 -0 -0 -0 -0 -0 -0 -0 0 0 0 0 0 0 0 0 0 0 0 0 0 0 0 0 0 0 0 0
0 0 -0 0 -0 -0 -0 0 0 0 0 0 -0 -0 0 0 0 0 0 0 0 0 -0 -0 -0 -0 -0 -0 -0 -0 -0 -0 -0 -0 -0 0 0 0 0 0 0 0 0 0 0 0 0 0 0 0 0 0 -0 -0
0 0 0 0 0 0 -0 0 -0 -0 -0 -0 -0 -0 0 0 0 0 0 0 0 0 0 0 0 0 0 0 0 0 0 0 -0 -0 -0 0 0 0 0 0 0 0 0 -0 -0 0 -0 0 0 0 0 0 0 -0
0 0 0 0 0 0 0 0 0 0 0 0 0 0 0 0 0 0 0 0 0 0 0 0 0 0 0 0 0 0 -0 0 0 0 0 0 0 0 0 0 0 0 0 0 -0 0 -0 -0 0 0 0 0 0 0
Wind_Speed_500mb
50 54 58 63 67 70 72 71 68 66 64 61 57 54 54 49 52 51 57 48 59 56 72 68 67 60 50 49 29 27 16 17 6 10 14 19 20 30 27 33 26 23 18 14 24 18 30 28 26 13 4 7 14 23
55 60 65 69 69 71 71 72 73 72 68 68 67 62 60 58 52 53 66 52 55 63 53 41 49 53 57 61 65 36 21 24 6 7 4 11 13 17 33 27 31 17 20 18 21 15 16 16 24 37 11 14 20 24
60 66 68 68 69 74 77 77 76 71 69 67 68 69 67 61 57 56 62 54 53 44 62 70 71 71 70 70 61 57 55 28 24 14 2 4 10 12 14 29 28 32 32 23 20 23 30 21 34 33 28 29 28 24
63 62 68 69 73 74 77 77 75 73 71 70 69 68 63 61 56 53 57 52 50 27 14 51 56 59 52 51 57 72 70 58 36 21 13 5 6 18 7 18 18 26 19 28 33 28 24 27 28 35 36 29 22 18
60 64 67 70 72 79 82 78 73 73 71 68 64 62 57 54 48 48 54 51 52 46 12 35 43 46 39 37 44 48 62 67 56 17 8 9 12 20 24 20 19 32 26 23 16 19 21 30 18 16 17 21 18 16
58 65 61 68 71 76 76 69 70 68 63 58 50 49 43 46 35 35 23 39 52 54 20 9 34 44 42 49 61 61 51 62 52 17 10 11 29 13 10 28 39 52 47 42 39 44 37 32 20 16 19 17 15 12
59 61 59 66 69 76 70 60 59 57 47 35 29 27 33 29 31 35 12 6 13 14 9 8 14 17 29 47 56 47 54 31 29 11 11 7 13 23 11 36 51 45 50 64 57 48 47 41 33 28 23 18 19 11
57 55 54 63 65 68 61 50 47 42 30 25 15 14 10 17 27 38 43 36 29 22 9 7 11 30 30 21 37 29 28 22 18 14 12 9 17 18 13 25 53 67 60 39 44 44 38 31 32 27 26 24 19 14
55 50 52 55 58 57 60 46 41 39 22 18 6 6 6 11 12 16 20 26 27 23 8 10 11 19 23 10 4 10 14 6 11 7 11 14 12 17 20 24 44 49 60 68 53 44 34 38 28 34 31 27 21 14
50 49 44 42 47 47 50 44 39 31 14 8 8 4 7 7 17 15 10 10 19 17 19 13 37 26 16 10 12 3 12 9 10 13 18 13 30 65 61 59 40 40 42 39 44 44 52 46 41 36 33 25 19 10
48 44 39 36 40 40 38 37 33 27 18 13 7 6 13 16 10 9 7 9 16 8 17 26 47 29 41 17 5 13 6 6 8 13 14 12 16 34 68 71 69 45 32 33 31 35 44 45 45 38 32 23 16 12
44 38 33 32 36 38 35 34 32 28 24 22 22 25 16 6 6 8 9 10 12 11 12 15 15 20 19 10 10 8 7 9 11 23 9 10 16 26 27 30 54 64 52 35 27 28 31 40 43 37 32 24 18 16
38 32 29 30 32 36 36 33 31 31 31 15 6 6 8 8 10 11 12 10 9 7 10 14 9 8 17 12 8 7 11 10 1 7 7 7 2 5 10 10 19 54 60 48 31 31 29 38 36 32 30 25 21 18
32 30 29 33 32 38 35 33 32 29 13 5 6 9 9 8 9 10 13 15 17 12 5 6 10 9 13 11 8 9 2 1 5 7 7 10 25 18 6 9 16 24 53 52 40 33 33 41 37 33 30 25 22 19
37 38 35 30 29 41 36 34 30 23 8 7 8 9 10 14 30 27 34 30 21 17 10 6 8 12 9 10 7 8 6 8 7 5 4 18 7 14 12 11 14 24 45 56 48 34 34 35 36 33 29 25 23 21
39 36 16 21 42 36 31 29 27 16 7 7 11 13 32 29 30 37 19 29 9 13 15 10 6 7 10 6 8 11 6 5 7 7 14 18 21 18 17 20 22 30 43 52 48 40 37 37 38 37 33 28 22 17
34 14 27 41 40 29 28 23 8 6 7 8 12 20 31 35 30 30 22 13 15 3 4 5 5 5 7 7 6 5 9 12 26 26 23 14 22 24 27 29 34 41 46 46 44 41 38 37 36 33 30 25 22 18
32 28 34 40 34 22 21 6 6 7 12 19 13 26 22 26 21 24 12 10 2 3 8 5 12 6 7 7 7 10 26 34 26 25 19 22 25 29 32 36 39 42 42 41 42 41 37 35 32 28 27 25 21 16
36 31 28 26 12 13 6 6 7 9 17 20 23 24 19 17 16 17 12 13 6 5 10 10 9 6 6 10 11 31 36 35 31 14 18 24 27 32 36 39 43 46 45 41 38 33 32 27 24 25 22 19 18 12
22 14 11 12 8 6 7 8 8 12 12 16 26 24 27 22 14 15 9 10 12 5 5 5 6 12 23 25 20 25 28 30 29 25 19 25 27 31 34 37 39 38 35 32 30 30 26 23 21 19 15 18 14 9
15 14 25 7 8 11 9 8 10 16 21 22 26 30 21 18 17 15 16 23 9 10 7 17 37 41 36 31 25 19 16 13 8 13 30 15 22 27 28 30 31 28 28 25 25 23 17 19 18 15 14 13 11 9
15 23 9 8 6 8 12 14 14 23 15 28 30 25 18 8 8 13 16 8 9 7 10 29 45 49 36 21 7 7 8 8 4 5 7 11 16 21 24 24 24 25 22 20 19 18 21 18 18 15 17 12 15 11
18 9 6 6 7 9 15 12 9 11 8 13 25 11 4 6 6 9 5 10 10 28 37 30 25 15 21 25 23 18 6 5 6 8 10 12 15 18 20 16 16 20 20 21 19 20 22 21 20 12 12 17 14 9
11 5 5 6 10 9 9 7 12 11 8 7 7 8 6 9 11 5 3 8 32 41 48 48 40 13 14 10 6 11 13 17 16 14 14 17 18 16 16 20 22 21 28 16 20 21 17 18 16 16 18 18 15 15
7 7 9 12 11 8 7 7 7 3 5 9 9 7 7 8 2 3 4 16 39 46 46 46 40 34 28 20 14 18 13 9 16 22 27 28 25 22 24 22 19 19 24 27 24 24 19 14 13 16 15 16 17 19
7 9 8 4 6 6 6 7 8 11 8 4 5 6 5 3 10 7 6 32 33 43 40 36 37 30 23 17 16 13 21 19 16 24 23 22 24 26 26 23 23 20 13 12 13 9 10 13 18 21 18 16 24 24
8 9 9 5 3 4 8 7 8 5 5 6 7 9 6 6 7 8 19 33 38 37 25 26 23 25 23 20 11 9 15 15 9 8 21 18 18 18 14 14 11 8 8 6 7 10 12 18 18 17 18 22 26 25
10 7 5 3 2 4 3 3 5 8 9 13 8 8 5 9 8 17 23 37 29 21 16 16 22 23 24 23 19 13 9 11 5 1 11 26 23 16 12 7 6 15 13 9 9 12 16 18 20 23 25 27 26 25
12 10 7 3 5 5 7 6 10 11 12 6 4 5 5 6 16 17 23 21 19 27 24 22 24 22 21 25 25 23 21 17 14 6 17 23 19 18 15 16 14 11 11 15 21 21 21 21 23 26 28 27 26 26
11 7 3 4 6 5 3 5 10 9 15 16 15 14 11 13 22 25 25 26 33 35 34 30 26 26 29 28 29 29 28 32 30 32 36 27 21 14 16 14 13 12 15 18 20 25 24 24 28 27 26 26 26 26
2 3 4 9 2 5 9 8 8 6 10 13 15 17 10 6 16 25 25 29 27 24 25 29 32 33 32 31 29 27 30 27 20 15 13 15 11 11 12 12 9 10 13 15 18 22 25 26 24 24 25 24 25 26
5 6 11 6 9 11 3 4 3 3 1 9 12 12 12 6 5 10 19 20 18 22 25 21 22 27 30 27 28 27 26 25 23 16 9 4 2 3 7 8 3 8 10 14 16 20 24 22 23 24 24 24 24 23
8 8 8 13 10 2 9 7 6 4 4 4 6 6 7 4 6 2 6 14 17 16 17 15 15 16 17 19 21 23 25 20 17 16 11 2 4 3 5 8 3 5 11 11 13 16 22 20 20 22 23 24 25 23
Wind_Direction_500mb
317 315 313 311 308 306 307 306 302 300 298 294 292 287 282 276 267 260 258 255 248 254 266 264 271 271 275 279 271 275 295 222 220 254 216 223 236 234 243 242 167 175 184 208 230 229 248 232 166 206 239 239 299 306
317 317 316 313 312 312 310 306 302 296 291 287 284 282 278 271 269 257 259 257 257 253 263 263 266 258 260 266 271 247 234 275 248 279 301 269 238 222 226 226 217 194 203 194 197 210 238 230 187 219 241 281 298 303
318 320 321 318 314 311 310 307 305 302 296 289 284 280 274 272 266 260 257 257 261 274 273 263 260 258 255 251 250 257 259 248 242 246 318 285 284 264 222 226 237 222 191 226 222 234 247 210 227 247 251 270 286 291
320 321 321 317 318 318 316 311 307 303 299 291 282 278 275 266 264 259 253 254 252 252 262 269 266 259 258 247 241 241 248 251 243 257 204 215 275 288 278 254 258 235 202 227 243 235 265 267 255 247 251 266 264 272
322 321 320 323 323 319 316 314 310 306 301 293 282 278 271 260 259 255 254 255 248 244 289 288 292 271 268 262 255 240 234 237 240 248 237 227 251 257 265 261 251 244 230 232 237 227 245 250 275 260 246 244 242 245
321 320 322 328 327 325 324 321 317 312 307 301 286 276 262 254 244 246 267 264 245 239 248 258 275 270 263 249 244 244 237 236 229 189 203 233 240 304 261 251 237 244 256 248 253 251 262 255 261 244 242 226 216 220
319 323 322 327 329 334 329 324 326 327 320 310 290 275 257 237 226 219 211 114 39 238 267 252 262 283 245 239 244 231 229 230 213 196 209 239 221 206 243 251 257 272 256 243 241 251 257 245 239 230 226 206 196 197
321 324 326 331 333 337 336 330 335 343 334 325 307 288 194 225 249 248 257 255 263 284 274 271 267 287 282 240 214 213 220 209 204 189 197 219 242 223 253 247 246 241 241 240 238 229 237 240 222 217 200 194 192 205
321 321 323 330 339 343 346 337 336 339 329 326 300 176 227 238 237 260 253 245 232 219 246 238 271 288 353 318 172 163 182 192 198 232 197 195 224 228 244 249 239 234 233 232 228 241 224 231 209 200 196 197 206 217
321 324 322 332 340 342 352 360 355 1 355 36 90 221 242 221 247 259 247 224 205 213 229 254 265 271 287 44 355 225 190 226 203 206 180 225 248 246 247 246 249 241 234 229 229 226 221 220 206 196 197 197 204 211
323 326 324 329 337 334 343 354 5 350 347 327 308 281 308 305 278 228 251 216 190 234 219 244 237 249 249 246 250 197 276 212 225 179 209 223 251 234 239 240 233 225 218 214 218 225 218 210 204 198 192 190 182 174
322 324 322 328 338 337 331 333 337 342 328 312 300 298 290 273 250 231 219 195 210 232 202 218 229 234 231 189 209 202 247 212 252 155 217 245 247 250 257 232 219 219 210 209 210 206 194 195 196 187 183 173 166 157
321 321 318 324 329 333 334 335 335 335 332 312 273 284 248 223 243 237 226 191 199 249 173 191 192 192 185 176 204 239 238 206 130 225 231 248 11 308 207 174 209 205 200 202 197 192 186 187 169 174 158 164 157 139
315 313 313 318 311 328 324 323 326 330 318 304 275 263 247 214 227 265 292 304 285 327 358 244 243 215 191 195 235 250 246 189 225 231 239 1 288 110 129 157 154 171 181 188 182 180 182 175 159 151 153 155 143 132
311 307 310 305 306 321 317 314 318 322 280 271 272 257 243 282 292 322 305 307 302 287 310 221 233 230 206 237 221 269 218 235 232 211 11 271 50 113 107 108 130 154 169 178 175 170 160 148 142 144 147 141 136 127
317 320 318 309 312 318 320 317 310 295 258 262 240 268 285 306 319 319 327 311 345 326 309 233 264 236 231 230 223 232 234 20 316 331 330 83 112 110 111 115 116 138 155 165 169 145 146 150 149 143 136 130 125 118
316 301 300 306 321 324 318 316 283 232 237 248 257 280 285 290 294 302 300 310 345 302 253 261 244 275 295 254 253 261 354 4 356 346 5 79 106 108 113 114 119 127 139 138 133 141 146 144 140 138 134 128 118 109
306 301 299 303 314 324 303 284 261 251 251 247 252 274 257 270 270 291 327 345 58 267 274 291 292 259 239 310 9 353 17 12 9 3 35 89 98 105 113 119 126 129 132 135 140 141 142 143 142 139 138 133 123 115
309 296 288 305 307 312 278 253 231 263 256 281 279 296 290 292 260 267 292 301 277 268 272 279 268 278 8 56 6 340 352 356 338 29 79 87 97 109 113 117 121 125 131 134 137 139 140 141 140 143 144 142 126 125
324 323 328 309 297 271 265 251 240 266 281 305 303 291 310 310 319 299 291 315 290 230 216 257 313 328 344 343 349 316 324 334 344 355 100 103 108 117 122 126 127 127 127 130 131 133 135 134 138 142 144 138 130 125
328 308 323 339 269 227 259 270 252 252 286 294 296 303 309 317 12 340 10 357 5 341 337 335 325 315 305 298 290 282 292 323 15 305 347 123 126 131 132 134 138 139 138 136 143 137 137 142 143 143 141 134 142 120
273 304 300 279 239 237 257 239 257 300 283 272 302 312 309 32 19 13 336 342 352 328 292 303 311 316 309 293 239 136 81 99 67 23 72 122 134 149 148 156 158 157 149 140 136 131 134 142 140 141 153 144 132 123
291 301 256 235 246 236 265 234 251 248 257 316 322 323 40 53 4 349 65 355 321 337 335 339 358 65 112 109 116 110 86 30 98 93 96 98 93 133 148 147 144 150 149 146 144 150 140 145 165 155 170 141 134 122
312 247 244 248 222 260 270 250 243 277 295 317 311 329 27 0 348 55 60 2 350 15 21 17 25 93 92 98 83 96 100 96 97 108 109 109 111 117 150 154 150 143 155 134 149 146 147 138 158 143 142 138 133 137
252 239 213 240 236 242 272 270 261 294 288 330 323 10 9 343 303 119 48 5 4 13 19 26 30 21 28 51 57 68 61 48 79 87 102 107 105 113 124 123 129 129 148 158 161 146 147 159 163 148 149 143 149 143
256 206 198 300 350 333 307 296 341 346 345 328 282 317 289 349 17 31 35 355 355 357 2 15 13 10 11 7 2 17 14 17 50 95 93 103 109 115 128 137 136 132 142 155 164 183 183 156 158 159 155 152 155 146
250 230 205 220 211 261 283 309 324 284 273 346 356 2 13 36 35 37 354 353 346 353 10 16 20 18 18 15 16 44 42 29 81 60 115 114 113 121 123 114 118 138 159 165 173 160 159 159 157 159 158 152 151 151
255 291 280 300 204 215 208 282 307 3 4 357 353 24 40 23 1 334 329 338 353 8 19 27 36 32 33 30 36 44 40 24 4 227 118 125 116 108 100 81 112 132 131 137 141 154 154 156 156 155 153 150 150 151
236 222 268 309 50 86 48 3 14 8 341 331 4 51 54 22 351 338 344 5 48 51 50 50 45 39 43 37 40 49 50 50 63 101 157 126 102 80 85 85 88 105 114 128 136 141 143 144 146 150 150 150 153 153
222 198 293 58 48 64 102 115 123 101 58 65 97 99 86 62 49 55 57 59 59 57 51 53 56 55 53 55 52 45 60 75 76 92 89 79 44 54 77 86 89 95 114 128 139 154 160 150 145 142 146 150 152 156
141 174 75 75 112 151 145 136 116 94 102 112 117 106 109 104 58 47 53 49 35 36 44 48 51 54 55 54 51 52 50 59 73 92 90 76 39 42 50 61 85 104 126 142 144 146 151 145 148 151 155 157 162 158
180 192 135 139 156 166 152 205 111 65 169 148 154 149 151 114 68 29 41 56 44 39 30 27 33 32 33 34 32 35 37 38 41 39 42 60 109 149 64 34 81 133 142 150 153 164 163 164 164 166 168 171 172 169
131 134 154 137 127 189 225 220 193 202 183 129 108 101 86 74 98 148 17 50 53 29 24 21 29 33 28 26 27 24 9 13 29 30 26 271 224 225 195 142 148 161 171 173 173 183 180 181 183 182 181 183 182 182
Wind_Speed_850mb
50 54 58 63 67 70 72 71 68 66 64 61 57 54 54 49 52 51 57 48 59 56 72 68 67 60 50 49 29 27 16 17 6 10 14 19 20 30 27 33 26 23 18 14 24 18 30 28 26 13 4 7 14 23
55 60 65 69 69 71 71 72 73 72 68 68 67 62 60 58 52 53 66 52 55 63 53 41 49 53 57 61 65 36 21 24 6 7 4 11 13 17 33 27 31 17 20 18 21 15 16 16 24 37 11 14 20 24
60 66 68 68 69 74 77 77 76 71 69 67 68 69 67 61 57 56 62 54 53 44 62 70 71 71 70 70 61 57 55 28 24 14 2 4 10 12 14 29 28 32 32 23 20 23 30 21 34 33 28 29 28 24
63 62 68 69 73 74 77 77 75 73 71 70 69 68 63 61 56 53 57 52 50 27 14 51 56 59 52 51 57 72 70 58 36 21 13 5 6 18 7 18 18 26 19 28 33 28 24 27 28 35 36 29 22 18
60 64 67 70 72 79 82 78 73 73 71 68 64 62 57 54 48 48 54 51 52 46 12 35 43 46 39 37 44 48 62 67 56 17 8 9 12 20 24 20 19 32 26 23 16 19 21 30 18 16 17 21 18 16
58 65 61 68 71 76 76 69 70 68 63 58 50 49 43 46 35 35 23 39 52 54 20 9 34 44 42 49 61 61 51 62 52 17 10 11 29 13 10 28 39 52 47 42 39 44 37 32 20 16 19 17 15 12
59 61 59 66 69 76 70 60 59 57 47 35 29 27 33 29 31 35 12 6 13 14 9 8 14 17 29 47 56 47 54 31 29 11 11 7 13 23 11 36 51 45 50 64 57 48 47 41 33 28 23 18 19 11
57 55 54 63 65 68 61 50 47 42 30 25 15 14 10 17 27 38 43 36 29 22 9 7 11 30 30 21 37 29 28 22 18 14 12 9 17 18 13 25 53 67 60 39 44 44 38 31 32 27 26 24 19 14
55 50 52 55 58 57 60 46 41 39 22 18 6 6 6 11 12 16 20 26 27 23 8 10 11 19 23 10 4 10 14 6 11 7 11 14 12 17 20 24 44 49 60 68 53 44 34 38 28 34 31 27 21 14
50 49 44 42 47 47 50 44 39 31 14 8 8 4 7 7 17 15 10 10 19 17 19 13 37 26 16 10 12 3 12 9 10 13 18 13 30 65 61 59 40 40 42 39 44 44 52 46 41 36 33 25 19 10
48 44 39 36 40 40 38 37 33 27 18 13 7 6 13 16 10 9 7 9 16 8 17 26 47 29 41 17 5 13 6 6 8 13 14 12 16 34 68 71 69 45 32 33 31 35 44 45 45 38 32 23 16 12
44 38 33 32 36 38 35 34 32 28 24 22 22 25 16 6 6 8 9 10 12 11 12 15 15 20 19 10 10 8 7 9 11 23 9 10 16 26 27 30 54 64 52 35 27 28 31 40 43 37 32 24 18 16
38 32 29 30 32 36 36 33 31 31 31 15 6 6 8 8 10 11 12 10 9 7 10 14 9 8 17 12 8 7 11 10 1 7 7 7 2 5 10 10 19 54 60 48 31 31 29 38 36 32 30 25 21 18
32 30 29 33 32 38 35 33 32 29 13 5 6 9 9 8 9 10 13 15 17 12 5 6 10 9 13 11 8 9 2 1 5 7 7 10 25 18 6 9 16 24 53 52 40 33 33 41 37 33 30 25 22 19
37 38 35 30 29 41 36 34 30 23 8 7 8 9 10 14 30 27 34 30 21 17 10 6 8 12 9 10 7 8 6 8 7 5 4 18 7 14 12 11 14 24 45 56 48 34 34 35 36 33 29 25 23 21
39 36 16 21 42 36 31 29 27 16 7 7 11 13 32 29 30 37 19 29 9 13 15 10 6 7 10 6 8 11 6 5 7 7 14 18 21 18 17 20 22 30 43 52 48 40 37 37 38 37 33 28 22 17
34 14 27 41 40 29 28 23 8 6 7 8 12 20 31 35 30 30 22 13 15 3 4 5 5 5 7 7 6 5 9 12 26 26 23 14 22 24 27 29 34 41 46 46 44 41 38 37 36 33 30 25 22 18
32 28 34 40 34 22 21 6 6 7 12 19 13 26 22 26 21 24 12 10 2 3 8 5 12 6 7 7 7 10 26 34 26 25 19 22 25 29 32 36 39 42 42 41 42 41 37 35 32 28 27 25 21 16
36 31 28 26 12 13 6 6 7 9 17 20 23 24 19 17 16 17 12 13 6 5 10 10 9 6 6 10 11 31 36 35 31 14 18 24 27 32 36 39 43 46 45 41 38 33 32 27 24 25 22 19 18 12
22 14 11 12 8 6 7 8 8 12 12 16 26 24 27 22 14 15 9 10 12 5 5 5 6 12 23 25 20 25 28 30 29 25 19 25 27 31 34 37 39 38 35 32 30 30 26 23 21 19 15 18 14 9
15 14 25 7 8 11 9 8 10 16 21 22 26 30 21 18 17 15 16 23 9 10 7 17 37 41 36 31 25 19 16 13 8 13 30 15 22 27 28 30 31 28 28 25 25 23 17 19 18 15 14 13 11 9
15 23 9 8 6 8 12 14 14 23 15 28 30 25 18 8 8 13 16 8 9 7 10 29 45 49 36 21 7 7 8 8 4 5 7 11 16 21 24 24 24 25 22 20 19 18 21 18 18 15 17 12 15 11
18 9 6 6 7 9 15 12 9 11 8 13 25 11 4 6 6 9 5 10 10 28 37 30 25 15 21 25 23 18 6 5 6 8 10 12 15 18 20 16 16 20 20 21 19 20 22 21 20 12 12 17 14 9
11 5 5 6 10 9 9 7 12 11 8 7 7 8 6 9 11 5 3 8 32 41 48 48 40 13 14 10 6 11 13 17 16 14 14 17 18 16 16 20 22 21 28 16 20 21 17 18 16 16 18 18 15 15
7 7 9 12 11 8 7 7 7 3 5 9 9 7 7 8 2 3 4 16 39 46 46 46 40 34 28 20 14 18 13 9 16 22 27 28 25 22 24 22 19 19 24 27 24 24 19 14 13 16 15 16 17 19
7 9 8 4 6 6 6 7 8 11 8 4 5 6 5 3 10 7 6 32 33 43 40 36 37 30 23 17 16 13 21 19 16 24 23 22 24 26 26 23 23 20 13 12 13 9 10 13 18 21 18 16 24 24
8 9 9 5 3 4 8 7 8 5 5 6 7 9 6 6 7 8 19 33 38 37 25 26 23 25 23 20 11 9 15 15 9 8 21 18 18 18 14 14 11 8 8 6 7 10 12 18 18 17 18 22 26 25
10 7 5 3 2 4 3 3 5 8 9 13 8 8 5 9 8 17 23 37 29 21 16 16 22 23 24 23 19 13 9 11 5 1 11 26 23 16 12 7 6 15 13 9 9 12 16 18 20 23 25 27 26 25
12 10 7 3 5 5 7 6 10 11 12 6 4 5 5 6 16 17 23 21 19 27 24 22 24 22 21 25 25 23 21 17 14 6 17 23 19 18 15 16 14 11 11 15 21 21 21 21 23 26 28 27 26 26
11 7 3 4 6 5 3 5 10 9 15 16 15 14 11 13 22 25 25 26 33 35 34 30 26 26 29 28 29 29 28 32 30 32 36 27 21 14 16 14 13 12 15 18 20 25 24 24 28 27 26 26 26 26
2 3 4 9 2 5 9 8 8 6 10 13 15 17 10 6 16 25 25 29 27 24 25 29 32 33 32 31 29 27 30 27 20 15 13 15 11 11 12 12 9 10 13 15 18 22 25 26 24 24 25 24 25 26
5 6 11 6 9 11 3 4 3 3 1 9 12 12 12 6 5 10 19 20 18 22 25 21 22 27 30 27 28 27 26 25 23 16 9 4 2 3 7 8 3 8 10 14 16 20 24 22 23 24 24 24 24 23
8 8 8 13 10 2 9 7 6 4 4 4 6 6 7 4 6 2 6 14 17 16 17 15 15 16 17 19 21 23 25 20 17 16 11 2 4 3 5 8 3 5 11 11 13 16 22 20 20 22 23 24 25 23
Wind_Direction_850mb
317 315 313 311 308 306 307 306 302 300 298 294 292 287 282 276 267 260 258 255 248 254 266 264 271 271 275 279 271 275 295 222 220 254 216 223 236 234 243 242 167 175 184 208 230 229 248 232 166 206 239 239 299 306
317 317 316 313 312 312 310 306 302 296 291 287 284 282 278 271 269 257 259 257 257 253 263 263 266 258 260 266 271 247 234 275 248 279 301 269 238 222 226 226 217 194 203 194 197 210 238 230 187 219 241 281 298 303
318 320 321 318 314 311 310 307 305 302 296 289 284 280 274 272 266 260 257 257 261 274 273 263 260 258 255 251 250 257 259 248 242 246 318 285 284 264 222 226 237 222 191 226 222 234 247 210 227 247 251 270 286 291
320 321 321 317 318 318 316 311 307 303 299 291 282 278 275 266 264 259 253 254 252 252 262 269 266 259 258 247 241 241 248 251 243 257 204 215 275 288 278 254 258 235 202 227 243 235 265 267 255 247 251 266 264 272
322 321 320 323 323 319 316 314 310 306 301 293 282 278 271 260 259 255 254 255 248 244 289 288 292 271 268 262 255 240 234 237 240 248 237 227 251 257 265 261 251 244 230 232 237 227 245 250 275 260 246 244 242 245
321 320 322 328 327 325 324 321 317 312 307 301 286 276 262 254 244 246 267 264 245 239 248 258 275 270 263 249 244 244 237 236 229 189 203 233 240 304 261 251 237 244 256 248 253 251 262 255 261 244 242 226 216 220
319 323 322 327 329 334 329 324 326 327 320 310 290 275 257 237 226 219 211 114 39 238 267 252 262 283 245 239 244 231 229 230 213 196 209 239 221 206 243 251 257 272 256 243 241 251 257 245 239 230 226 206 196 197
321 324 326 331 333 337 336 330 335 343 334 325 307 288 194 225 249 248 257 255 263 284 274 271 267 287 282 240 214 213 220 209 204 189 197 219 242 223 253 247 246 241 241 240 238 229 237 240 222 217 200 194 192 205
321 321 323 330 339 343 346 337 336 339 329 326 300 176 227 238 237 260 253 245 232 219 246 238 271 288 353 318 172 163 182 192 198 232 197 195 224 228 244 249 239 234 233 232 228 241 224 231 209 200 196 197 206 217
321 324 322 332 340 342 352 360 355 1 355 36 90 221 242 221 247 259 247 224 205 213 229 254 265 271 287 44 355 225 190 226 203 206 180 225 248 246 247 246 249 241 234 229 229 226 221 220 206 196 197 197 204 211
323 326 324 329 337 334 343 354 5 350 347 327 308 281 308 305 278 228 251 216 190 234 219 244 237 249 249 246 250 197 276 212 225 179 209 223 251 234 239 240 233 225 218 214 218 225 218 210 204 198 192 190 182 174
322 324 322 328 338 337 331 333 337 342 328 312 300 298 290 273 250 231 219 195 210 232 202 218 229 234 231 189 209 202 247 212 252 155 217 245 247 250 257 232 219 219 210 209 210 206 194 195 196 187 183 173 166 157
321 321 318 324 329 333 334 335 335 335 332 312 273 284 248 223 243 237 226 191 199 249 173 191 192 192 185 176 204 239 238 206 130 225 231 248 11 308 207 174 209 205 200 202 197 192 186 187 169 174 158 164 157 139
315 313 313 318 311 328 324 323 326 330 318 304 275 263 247 214 227 265 292 304 285 327 358 244 243 215 191 195 235 250 246 189 225 231 239 1 288 110 129 157 154 171 181 188 182 180 182 175 159 151 153 155 143 132
311 307 310 305 306 321 317 314 318 322 280 271 272 257 243 282 292 322 305 307 302 287 310 221 233 230 206 237 221 269 218 235 232 211 11 271 50 113 107 108 130 154 169 178 175 170 160 148 142 144 147 141 136 127
317 320 318 309 312 318 320 317 310 295 258 262 240 268 285 306 319 319 327 311 345 326 309 233 264 236 231 230 223 232 234 20 316 331 330 83 112 110 111 115 116 138 155 165 169 145 146 150 149 143 136 130 125 118
316 301 300 306 321 324 318 316 283 232 237 248 257 280 285 290 294 302 300 310 345 302 253 261 244 275 295 254 253 261 354 4 356 346 5 79 106 108 113 114 119 127 139 138 133 141 146 144 140 138 134 128 118 109
306 301 299 303 314 324 303 284 261 251 251 247 252 274 257 270 270 291 327 345 58 267 274 291 292 259 239 310 9 353 17 12 9 3 35 89 98 105 113 119 126 129 132 135 140 141 142 143 142 139 138 133 123 115
309 296 288 305 307 312 278 253 231 263 256 281 279 296 290 292 260 267 292 301 277 268 272 279 268 278 8 56 6 340 352 356 338 29 79 87 97 109 113 117 121 125 131 134 137 139 140 141 140 143 144 142 126 125
324 323 328 309 297 271 265 251 240 266 281 305 303 291 310 310 319 299 291 315 290 230 216 257 313 328 344 343 349 316 324 334 344 355 100 103 108 117 122 126 127 127 127 130 131 133 135 134 138 142 144 138 130 125
328 308 323 339 269 227 259 270 252 252 286 294 296 303 309 317 12 340 10 357 5 341 337 335 325 315 305 298 290 282 292 323 15 305 347 123 126 131 132 134 138 139 138 136 143 137 137 142 143 143 141 134 142 120
273 304 300 279 239 237 257 239 257 300 283 272 302 312 309 32 19 13 336 342 352 328 292 303 311 316 309 293 239 136 81 99 67 23 72 122 134 149 148 156 158 157 149 140 136 131 134 142 140 141 153 144 132 123
291 301 256 235 246 236 265 234 251 248 257 316 322 323 40 53 4 349 65 355 321 337 335 339 358 65 112 109 116 110 86 30 98 93 96 98 93 133 148 147 144 150 149 146 144 150 140 145 165 155 170 141 134 122
312 247 244 248 222 260 270 250 243 277 295 317 311 329 27 0 348 55 60 2 350 15 21 17 25 93 92 98 83 96 100 96 97 108 109 109 111 117 150 154 150 143 155 134 149 146 147 138 158 143 142 138 133 137
252 239 213 240 236 242 272 270 261 294 288 330 323 10 9 343 303 119 48 5 4 13 19 26 30 21 28 51 57 68 61 48 79 87 102 107 105 113 124 123 129 129 148 158 161 146 147 159 163 148 149 143 149 143
256 206 198 300 350 333 307 296 341 346 345 328 282 317 289 349 17 31 35 355 355 357 2 15 13 10 11 7 2 17 14 17 50 95 93 103 109 115 128 137 136 132 142 155 164 183 183 156 158 159 155 152 155 146
250 230 205 220 211 261 283 309 324 284 273 346 356 2 13 36 35 37 354 353 346 353 10 16 20 18 18 15 16 44 42 29 81 60 115 114 113 121 123 114 118 138 159 165 173 160 159 159 157 159 158 152 151 151
255 291 280 300 204 215 208 282 307 3 4 357 353 24 40 23 1 334 329 338 353 8 19 27 36 32 33 30 36 44 40 24 4 227 118 125 116 108 100 81 112 132 131 137 141 154 154 156 156 155 153 150 150 151
236 222 268 309 50 86 48 3 14 8 341 331 4 51 54 22 351 338 344 5 48 51 50 50 45 39 43 37 40 49 50 50 63 101 157 126 102 80 85 85 88 105 114 128 136 141 143 144 146 150 150 150 153 153
222 198 293 58 48 64 102 115 123 101 58 65 97 99 86 62 49 55 57 59 59 57 51 53 56 55 53 55 52 45 60 75 76 92 89 79 44 54 77 86 89 95 114 128 139 154 160 150 145 142 146 150 152 156
141 174 75 75 112 151 145 136 116 94 102 112 117 106 109 104 58 47 53 49 35 36 44 48 51 54 55 54 51 52 50 59 73 92 90 76 39 42 50 61 85 104 126 142 144 146 151 145 148 151 155 157 162 158
180 192 135 139 156 166 152 205 111 65 169 148 154 149 151 114 68 29 41 56 44 39 30 27 33 32 33 34 32 35 37 38 41 39 42 60 109 149 64 34 81 133 142 150 153 164 163 164 164 166 168 171 172 169
131 134 154 137 127 189 225 220 193 202 183 129 108 101 86 74 98 148 17 50 53 29 24 21 29 33 28 26 27 24 9 13 29 30 26 271 224 225 195 142 148 161 171 173 173 183 180 181 183 182 181 183 182 182